EHI
0 0 0 0 0 0 0 0 0 0 0 0 0 0 0 0 1 3 8 22 47 73 88 92 89 85 84 88 91 91 90 86 84 84 78 68 52 27 12 24 34 20 7 5
0 0 0 0 0 0 0 0 0 0 0 0 0 0 0 2 6 13 17 26 44 62 73 76 74 70 71 75 78 80 82 76 72 70 61 49 37 19 11 26 42 37 24 17
0 0 0 0 0 0 0 0 0 0 0 0 0 0 2 8 21 33 34 32 35 40 41 42 40 39 41 46 53 63 73 67 58 51 35 25 24 15 14 35 59 64 50 38
0 0 0 0 0 0 0 0 0 0 0 0 0 1 5 17 36 49 45 30 21 16 13 12 12 12 14 21 35 57 71 69 62 52 37 31 31 25 30 51 72 76 63 50
0 0 0 0 0 0 0 0 0 0 0 0 0 1 7 24 42 49 38 21 9 4 2 2 2 4 7 13 30 54 70 74 73 70 65 61 56 51 56 70 79 78 66 55
0 0 0 0 0 0 0 0 0 0 0 0 0 1 11 32 46 39 23 11 4 1 1 2 3 5 8 12 24 41 54 61 67 73 79 82 80 78 81 85 86 83 73 63
0 0 0 0 0 0 0 0 0 0 0 0 0 3 16 32 36 24 10 3 1 0 1 1 2 4 5 8 13 21 28 33 38 47 61 73 80 84 90 92 92 89 82 75
0 0 0 0 0 0 0 0 0 0 0 0 3 10 17 18 15 8 3 1 0 0 0 0 1 1 1 3 5 7 8 10 12 17 28 41 50 61 74 85 92 93 90 87
0 0 0 0 0 0 0 0 0 0 0 0 5 15 14 7 3 1 0 0 0 0 0 0 0 0 0 0 1 2 2 1 1 2 6 12 18 26 39 56 72 83 87 89
0 0 0 0 0 0 0 0 0 0 0 0 3 9 11 7 2 0 0 0 0 0 0 0 0 0 0 0 0 0 0 0 0 0 0 1 2 5 10 20 37 51 62 68
0 0 0 0 0 0 0 0 0 0 0 0 0 3 7 6 2 0 0 0 0 0 0 0 0 0 0 0 0 0 0 0 0 0 0 0 0 0 0 3 9 17 26 33
0 0 0 0 0 0 0 0 0 0 0 0 0 1 3 2 0 0 0 0 0 0 0 0 0 0 0 0 0 0 0 0 0 0 0 0 0 0 0 0 0 1 4 7
0 0 0 0 0 0 0 0 0 0 0 0 0 0 0 0 0 0 0 0 0 0 0 0 0 0 0 0 0 0 0 0 0 0 0 0 0 0 0 0 0 0 0 1
0 0 0 0 0 0 0 0 0 0 0 0 0 0 0 0 0 0 0 0 0 0 0 0 0 0 0 0 0 0 0 0 0 0 0 0 0 0 0 0 0 0 0 0
0 0 0 0 0 0 0 0 0 0 0 0 0 0 0 0 0 0 0 0 0 0 0 0 0 0 0 0 0 0 0 0 0 0 0 0 0 0 0 0 0 0 0 0
0 0 0 0 0 0 0 0 0 0 0 0 0 0 0 0 0 0 0 0 0 0 0 0 0 0 0 0 0 0 0 0 0 0 0 0 0 0 0 0 0 0 0 0
0 0 0 0 0 0 0 0 0 0 0 0 0 0 0 0 0 0 0 0 0 0 0 0 0 0 0 0 0 0 0 0 0 0 0 0 0 0 0 0 0 0 0 0
0 0 0 0 0 0 0 0 0 0 0 0 0 0 0 0 0 0 0 0 0 0 0 0 0 0 0 0 0 0 0 0 0 0 0 0 0 0 0 0 0 0 0 0
0 0 0 0 0 0 0 0 0 0 0 0 0 0 0 0 0 0 0 0 0 0 0 0 0 0 0 0 0 0 0 0 0 0 0 0 0 0 0 0 0 0 0 0
0 0 0 0 0 0 0 0 0 0 0 0 0 0 0 0 0 0 0 0 0 0 0 0 0 0 0 0 0 0 0 0 0 0 0 0 0 0 0 0 0 0 0 0
0 0 0 0 0 0 0 0 0 0 0 0 0 0 0 0 0 0 0 0 0 0 0 0 0 0 0 0 0 0 0 0 0 0 0 0 0 0 0 0 0 0 0 0
0 0 0 0 0 0 0 0 0 0 0 0 0 0 0 0 0 0 0 0 0 0 0 0 0 0 0 0 0 0 0 0 0 0 0 0 0 0 0 0 0 0 0 0
0 0 0 0 0 0 0 0 0 0 0 0 0 0 0 0 0 0 0 0 0 0 0 0 0 0 0 0 0 0 0 0 0 0 0 0 0 0 0 0 0 0 0 0
0 0 0 0 0 0 0 0 0 0 0 0 0 0 0 0 0 0 0 0 0 0 0 0 0 0 0 0 0 0 0 0 0 0 0 0 0 0 0 0 0 0 0 0
0 0 0 0 0 0 0 0 0 0 0 0 0 0 0 0 0 0 0 0 0 0 0 0 0 0 0 0 0 0 0 0 0 0 0 0 0 0 0 0 0 0 0 0
0 0 0 0 0 0 0 0 0 0 0 0 0 0 0 0 0 0 0 0 0 0 0 0 0 0 0 0 0 0 0 0 0 0 0 0 0 0 0 0 0 0 0 0
Wind_Speed
10 10 7 7 8 11 12 13 14 12 9 4 6 13 14 6 5 7 7 6 6 9 9 6 5 5 6 8 9 8 7 6 4 3 3 2 2 1 1 2 5 3 1 1
5 6 7 6 6 9 10 11 12 10 10 8 9 13 15 12 8 4 4 5 5 5 2 4 5 7 8 6 6 7 7 6 4 4 3 2 1 1 1 1 4 4 3 1
4 5 6 7 9 11 10 10 12 10 9 11 14 16 15 9 3 7 11 13 14 15 17 18 16 15 14 9 4 4 5 5 3 5 3 3 2 2 3 3 3 4 4 2
7 4 5 8 9 10 10 8 11 12 12 12 13 12 7 2 8 16 20 21 19 19 21 19 16 13 10 7 7 6 4 2 1 1 2 2 3 3 2 1 2 4 4 3
6 7 7 7 8 9 10 12 13 15 14 14 14 12 2 9 13 16 17 17 15 15 18 16 11 7 8 8 9 10 9 7 6 5 5 5 5 4 2 1 2 3 4 5
13 7 5 5 8 9 9 12 15 11 7 9 13 14 1 7 11 14 15 16 16 16 16 14 10 9 9 12 12 13 13 12 11 9 8 6 7 6 6 6 4 3 3 5
13 7 4 2 7 9 12 11 9 6 0 6 11 12 4 13 15 15 15 15 15 15 14 13 12 11 12 13 13 13 13 13 14 14 14 11 9 7 7 6 6 5 4 3
5 8 6 4 6 8 10 10 9 13 11 5 12 3 9 13 13 13 13 13 13 13 12 12 11 10 10 11 11 11 11 11 11 11 11 11 13 9 8 8 7 6 3 2
6 7 9 7 4 5 7 10 14 13 14 13 1 9 7 7 8 8 10 11 11 10 10 9 9 8 8 8 8 8 8 8 8 9 8 7 8 8 9 10 9 7 7 7
9 12 12 10 10 6 4 9 8 8 10 13 11 4 4 7 5 4 8 9 10 10 11 10 8 8 7 6 5 5 6 6 7 8 8 8 7 7 7 7 8 7 8 8
14 12 12 11 8 10 7 9 8 8 10 12 14 6 7 6 6 6 7 8 10 11 11 11 10 10 9 9 8 7 6 6 6 7 7 8 8 8 8 7 6 6 7 7
12 11 11 12 8 8 7 7 6 7 9 10 13 5 6 6 5 5 7 9 10 11 12 13 12 12 11 10 9 8 7 6 6 6 6 7 8 9 9 9 8 8 7 7
9 7 10 6 2 4 8 8 7 8 8 10 11 2 2 0 3 5 9 11 12 14 15 15 13 11 10 10 10 9 9 9 8 8 7 8 8 8 9 9 9 9 9 9
3 6 10 13 14 13 11 8 8 9 9 12 13 7 3 3 6 10 12 13 14 15 16 15 11 9 9 9 10 10 11 10 10 10 9 9 10 10 9 10 10 10 10 10
4 9 13 16 16 13 8 9 10 9 9 11 15 16 11 4 8 11 14 15 17 19 18 13 11 10 9 9 8 9 10 9 10 10 10 10 10 10 10 10 10 10 10 11
9 9 13 16 14 4 5 9 9 9 10 12 15 16 9 8 10 13 16 19 22 18 15 16 16 14 13 11 11 10 10 9 9 10 10 11 11 11 11 10 10 10 10 10
10 11 12 12 12 7 4 8 9 10 12 14 18 19 16 14 15 18 19 22 18 17 19 19 18 14 12 12 11 11 10 9 9 10 10 11 11 11 11 13 12 10 10 10
6 9 7 10 11 6 7 5 7 10 13 16 14 16 17 18 18 17 19 18 19 21 21 19 18 17 15 15 14 11 12 11 12 11 12 11 11 12 11 11 11 10 9 9
4 5 7 8 12 4 7 7 11 14 17 10 14 18 21 22 22 19 17 20 21 21 19 17 19 19 16 16 14 13 13 13 14 14 12 12 12 12 11 10 10 8 8 8
8 6 6 8 11 9 7 11 15 16 11 14 20 21 22 24 20 17 20 22 22 20 18 18 18 18 15 13 13 13 15 15 15 15 13 13 12 13 13 11 10 9 7 7
10 9 8 9 12 5 9 15 16 12 14 21 21 21 22 21 20 21 24 22 21 20 19 18 17 16 14 12 12 12 13 14 14 14 14 15 14 13 14 12 9 8 9 9
7 8 8 8 9 7 14 13 12 13 16 19 21 21 21 22 23 23 23 21 21 21 21 21 16 15 12 11 11 12 12 12 13 14 15 15 14 14 14 11 9 8 8 8
5 6 5 6 7 9 12 12 14 16 18 18 20 22 23 24 25 25 23 21 22 21 19 18 18 16 12 10 10 13 12 13 15 15 16 15 15 13 12 12 11 9 7 7
7 2 5 7 9 12 13 15 16 17 18 20 21 23 23 25 26 26 23 21 21 20 20 19 19 19 16 14 14 14 15 14 15 15 15 14 14 13 12 9 9 9 8 7
2 5 7 10 11 13 12 16 18 18 19 21 21 22 23 25 25 24 22 21 21 20 19 19 19 19 20 18 18 17 16 14 15 15 14 13 12 12 10 10 9 9 8 7
4 6 6 7 11 12 15 17 18 19 20 21 22 23 23 23 24 24 22 21 21 22 21 21 21 21 22 21 20 18 15 14 14 13 12 10 9 8 8 8 8 11 11 10
Wind_Direction
251 250 286 342 342 331 313 313 314 313 316 299 282 289 295 297 280 274 273 268 234 215 212 190 162 135 107 103 119 130 149 138 153 150 156 160 151 167 153 138 124 123 151 76
278 311 328 329 304 291 294 300 301 309 323 314 287 278 280 276 256 262 303 307 290 258 304 6 36 51 62 74 103 118 128 141 167 127 111 113 98 241 230 113 140 167 184 173
299 236 271 293 303 306 310 323 324 319 303 285 275 268 262 266 358 49 32 19 22 34 32 21 16 35 39 18 38 113 117 135 161 135 171 178 161 225 229 193 186 176 174 183
308 299 308 303 303 307 308 327 316 305 293 282 281 282 275 174 71 57 51 50 44 47 48 44 25 19 30 12 350 35 59 101 93 155 271 265 235 235 244 209 191 157 169 196
302 299 296 294 307 310 309 313 298 288 286 283 287 278 72 74 73 64 57 57 59 61 69 66 50 27 28 29 24 25 23 26 17 351 324 311 295 289 286 267 167 163 199 206
297 280 281 312 306 300 301 292 283 279 301 312 326 310 57 67 72 75 66 63 61 61 65 70 64 46 35 33 31 28 25 23 13 1 341 319 307 310 313 311 298 247 223 207
312 297 277 281 324 342 327 308 303 308 251 216 228 259 77 67 62 68 66 63 62 64 64 61 56 47 39 34 31 29 27 24 20 18 9 360 349 331 308 292 276 255 247 231
304 298 293 323 341 327 314 308 309 317 318 290 213 223 76 70 69 68 67 62 58 57 58 57 53 49 43 37 28 25 24 21 17 16 11 15 12 1 349 339 324 310 296 293
302 306 311 314 301 293 314 332 329 316 306 306 335 113 113 82 59 50 53 49 42 40 43 44 44 42 37 34 29 19 14 7 4 3 356 1 6 0 354 350 349 342 338 323
316 314 312 307 290 241 279 314 308 313 314 314 321 113 140 133 121 70 42 29 19 10 11 12 10 10 6 2 9 8 1 350 344 345 343 343 342 339 337 339 347 348 344 337
322 309 304 309 324 325 327 324 333 324 319 324 318 30 65 84 48 31 24 9 359 351 347 343 339 340 336 336 345 348 345 338 332 333 332 327 323 323 321 317 323 333 332 332
337 327 317 310 324 334 312 306 315 318 323 316 309 46 51 55 39 5 344 342 338 330 325 323 322 322 322 326 330 330 329 321 315 315 313 311 313 314 312 310 315 317 314 313
345 326 310 311 359 290 295 308 341 338 319 314 319 43 137 335 326 335 337 334 328 324 320 315 310 305 299 294 290 287 283 279 274 271 269 272 277 283 287 291 296 300 301 301
283 286 290 303 312 319 318 340 11 354 335 324 332 345 271 262 330 340 333 323 318 315 310 306 304 299 292 281 271 268 267 264 264 261 259 259 261 263 267 271 274 277 280 283
317 310 324 317 315 322 1 24 17 7 353 328 331 327 339 16 341 327 320 321 321 318 317 325 328 323 315 308 296 288 280 272 265 261 258 257 256 255 256 259 261 264 267 272
334 323 318 309 314 328 67 39 18 4 354 334 321 317 351 345 330 323 325 325 317 317 331 334 327 322 318 314 309 303 296 290 280 272 269 265 260 258 257 256 256 258 261 263
351 344 322 306 307 287 79 37 15 355 342 331 318 323 339 338 328 324 325 317 319 336 331 324 320 316 310 305 299 296 299 300 297 291 284 278 269 265 261 260 258 252 253 254
8 339 305 301 321 348 79 53 6 337 325 335 349 359 347 331 327 325 316 324 337 328 321 317 314 310 304 301 301 299 302 301 298 294 292 290 284 277 269 262 257 253 252 254
33 339 313 337 337 8 115 42 2 331 314 22 355 339 335 332 320 313 328 333 322 315 314 310 306 304 301 299 298 297 297 298 294 293 292 292 290 288 283 275 266 259 256 254
360 315 310 344 330 348 53 14 349 320 297 14 347 336 332 326 318 321 327 319 315 313 308 304 303 301 296 293 293 292 294 294 293 295 295 291 285 281 279 277 274 272 264 258
344 336 353 343 322 57 21 357 347 332 331 337 331 329 326 322 314 313 316 316 313 309 306 304 301 299 296 290 286 282 286 288 292 296 297 294 289 283 278 270 264 265 266 264
351 356 359 338 329 12 8 357 352 326 325 329 327 323 319 315 313 313 313 312 310 310 309 307 303 298 293 288 287 288 290 295 298 298 294 290 286 284 281 273 266 259 261 261
42 48 336 336 320 345 6 350 344 338 331 327 323 321 319 316 315 315 314 312 313 312 311 310 308 304 303 305 308 304 303 305 302 296 290 286 282 277 271 267 265 260 252 250
103 70 311 315 316 354 351 346 339 334 327 324 323 321 319 317 316 315 316 316 316 317 318 319 319 320 320 322 318 310 306 301 295 289 284 279 276 272 266 257 253 250 244 238
357 337 328 311 345 342 337 336 333 328 328 325 323 323 321 319 318 320 320 322 323 324 327 329 328 324 321 317 310 305 300 294 288 284 280 275 270 265 261 253 244 242 236 225
63 31 347 326 337 322 323 331 330 330 329 329 327 324 324 324 324 325 325 327 330 332 333 330 325 319 313 309 303 299 295 289 285 282 277 271 265 259 253 249 248 230 224 217